Location: Brede
(50.9167°N, 0.6000°E)
Time: 02:30:29
(UTC+00:00)

Cosmos 1607 - Pass Details

Date: 08 August 2020
Orbit: 911 x 991 km, 65.0° (Epoch: 19 September)

Event Time Altitude Azimuth Distance (km) Brightness Sun altitude
Rises 02:33:08 0° 317° (NW) 3,691 7.1 -15.5°
Reaches altitude 10° 02:35:48 10° 311° (NW) 2,747 6.4 -15.2°
Maximum altitude 02:41:52 45° 241° (WSW) 1,323 4.3 -14.6°
Drops below altitude 10° 02:47:57 10° 171° (S) 2,746 6.0 -14.0°
Sets 02:50:37 0° 165° (SSE) 3,689 6.7 -13.7°
